Scottsdale, AZ

10:51 AM MST on July 20, 2017 (GMT -0700)
Scottsdale

Weather History for KSDL - July, 2013

Change the Weather History Date:

Monday, July 1, 2013

  Actual Average Record
Temperature  
Mean Temperature 98 °F -  
Max Temperature 108 °F 101 °F 109 °F (2001)
Min Temperature 88 °F 78 °F 71 °F (2004)
Cooling Degree Days 33    
Growing Degree Days 48 (Base 50)    
Moisture  
Dew Point 57 °F    
Average Humidity 26    
Maximum Humidity 37    
Minimum Humidity 15    
Precipitation  
Precipitation 0.04 in - - ()
Sea Level Pressure  
Sea Level Pressure 29.75 in    
Wind  
Wind Speed 6 mph (SW)    
Max Wind Speed 14 mph    
Max Gust Speed 25 mph    
Visibility 10 miles    
Events Rain , Thunderstorm    
Averages and records for this station are not official NWS values.
T = Trace of Precipitation, MM = Missing Value Source: NWS Daily Summary

Daily Weather History Graph

Daily Weather History Graph

Search for Another Location

Airport or City:

Trip Planner

Search our weather history database for the weather conditions in past years. The results will help you decide how hot, cold, wet, or windy it might be!

Date:

Astronomy

Jul. 01, 2013 Rise Set
Actual Time 5:21 AM MST 7:41 PM MST
Civil Twilight 4:52 AM MST 8:10 PM MST
Nautical Twilight 4:16 AM MST 8:46 PM MST
Astronomical Twilight 3:38 AM MST 9:24 PM MST
Moon 12:42 AM MST (7/1) 2:09 PM MST (7/1)
Length of Visible Light 15h 18m
Length of Day
14h 20m
Waning Crescent, 34% of the Moon is Illuminated
Jul 1
Waning Crescent
Jul 8
New
Jul 15
First Quarter
Jul 22
Full
Jul 29
Last Quarter

Hourly Weather History & Observations

Time (MST) Temp. Heat Index Dew Point Humidity Pressure Visibility Wind Dir Wind Speed Gust Speed Precip Events Conditions
12:07 AM 95.0 °F 93.0 °F 55.4 °F 26% 29.88 in 3.0 mi SSW 13.8 mph 25.3 mph N/A   Haze
12:25 AM 95.0 °F 93.0 °F 55.4 °F 26% 29.89 in 7.0 mi SSE 5.8 mph 16.1 mph N/A   Mostly Cloudy
12:53 AM 93.0 °F 91.7 °F 57.0 °F 30% 29.76 in 7.0 mi South 9.2 mph - N/A   Scattered Clouds
1:53 AM 91.9 °F 90.8 °F 57.9 °F 32% 29.79 in 10.0 mi Calm Calm - N/A   Clear
2:53 AM 90.0 °F 89.1 °F 59.0 °F 35% 29.77 in 10.0 mi Calm Calm - N/A   Clear
3:53 AM 88.0 °F 87.1 °F 59.0 °F 37% 29.78 in 10.0 mi Calm Calm - N/A   Clear
4:53 AM 89.1 °F 88.2 °F 59.0 °F 36% 29.78 in 10.0 mi Calm Calm - N/A   Clear
5:53 AM 88.0 °F 87.1 °F 59.0 °F 37% 29.80 in 10.0 mi Calm Calm - N/A   Clear
6:53 AM 90.0 °F 89.7 °F 60.1 °F 37% 29.81 in 10.0 mi Calm Calm - N/A   Clear
7:53 AM 93.0 °F 92.7 °F 60.1 °F 33% 29.80 in 10.0 mi Calm Calm - N/A   Clear
8:53 AM 96.1 °F 95.2 °F 57.9 °F 28% 29.79 in 10.0 mi WSW 4.6 mph - N/A   Clear
9:53 AM 98.1 °F 97.2 °F 57.9 °F 26% 29.78 in 10.0 mi SSW 3.5 mph - N/A   Clear
10:53 AM 100.0 °F 99.2 °F 57.0 °F 24% 29.78 in 10.0 mi Calm Calm - N/A   Clear
11:53 AM 102.9 °F 101.4 °F 55.0 °F 20% 29.77 in 10.0 mi WSW 9.2 mph - N/A   Clear
12:53 PM 105.1 °F 103.3 °F 53.1 °F 18% 29.75 in 10.0 mi SSW 6.9 mph - N/A   Clear
1:53 PM 108.0 °F 105.9 °F 53.1 °F 16% 29.72 in 10.0 mi Variable 6.9 mph - N/A   Clear
2:53 PM 108.0 °F - 52.0 °F 16% 29.69 in 10.0 mi West 8.1 mph 25.3 mph N/A   Clear
3:53 PM 108.0 °F - 51.1 °F 15% 29.68 in 10.0 mi WSW 6.9 mph 16.1 mph N/A   Clear
4:53 PM 108.0 °F - 52.0 °F 16% 29.66 in 10.0 mi WSW 9.2 mph - N/A   Clear
5:53 PM 107.1 °F - 50.0 °F 15% 29.65 in 10.0 mi SSW 8.1 mph - N/A   Clear
6:53 PM 100.0 °F 101.8 °F 62.1 °F 29% 29.65 in 10.0 mi SW 8.1 mph - 0.04 in Rain , Thunderstorm Light Rain
7:07 PM 100.4 °F 102.4 °F 62.6 °F 29% 29.74 in 10.0 mi SW 6.9 mph - 0.00 in   Partly Cloudy
7:53 PM 102.0 °F 101.1 °F 55.9 °F 22% 29.65 in 10.0 mi West 3.5 mph - 0.00 in   Clear
8:53 PM 100.9 °F 101.0 °F 59.0 °F 25% 29.67 in 10.0 mi Calm Calm - N/A   Clear
9:53 PM 97.0 °F 99.3 °F 64.0 °F 34% 29.69 in 10.0 mi Calm Calm - N/A   Clear
10:53 PM 100.0 °F 97.9 °F 53.1 °F 21% 29.70 in 10.0 mi WSW 6.9 mph - N/A   Clear
11:53 PM 99.0 °F 96.5 °F 53.1 °F 21% 29.71 in 10.0 mi SW 9.2 mph - N/A   Clear